Time,TemperatureF,DewpointF,PressureIn,WindDirection,WindDirectionDegrees,WindSpeedMPH,WindSpeedGustMPH,Humidity,HourlyPrecipIn,Conditions,Clouds,dailyrainin,SolarRadiationWatts/m^2,SoftwareType,DateUTC
2013-02-24 00:00:00,22.5,19.7,29.81,SSW,194,0.0,2.0,89,0.00,,,0.02,0,Wunderground v.1.15,2013-02-24 06:00:00,
2013-02-24 00:05:00,22.5,19.7,29.81,SSW,194,0.0,1.0,89,0.00,,,0.02,0,Wunderground v.1.15,2013-02-24 06:05:00,
2013-02-24 00:10:00,22.1,19.4,29.82,SSW,194,2.0,3.0,89,0.00,,,0.00,0,Wunderground v.1.15,2013-02-24 06:10:00,
2013-02-24 00:15:00,21.6,18.9,29.82,SSW,194,2.0,3.0,89,0.00,,,0.00,0,Wunderground v.1.15,2013-02-24 06:15:00,
2013-02-24 00:20:00,21.4,18.7,29.82,SSW,194,0.0,3.0,89,0.00,,,0.00,0,Wunderground v.1.15,2013-02-24 06:20:00,
2013-02-24 00:25:00,21.6,18.9,29.82,SSW,194,2.0,2.0,89,0.00,,,0.00,0,Wunderground v.1.15,2013-02-24 06:25:00,
2013-02-24 00:30:00,21.9,19.2,29.82,SSW,194,1.0,3.0,89,0.00,,,0.00,0,Wunderground v.1.15,2013-02-24 06:30:00,
2013-02-24 00:35:00,22.1,19.6,29.81,SSW,194,0.0,2.0,90,0.00,,,0.00,0,Wunderground v.1.15,2013-02-24 06:35:00,
2013-02-24 00:40:00,22.2,19.7,29.82,SSW,194,0.0,2.0,90,0.00,,,0.00,0,Wunderground v.1.15,2013-02-24 06:40:00,
2013-02-24 00:45:00,22.0,19.3,29.82,SSW,194,0.0,0.0,89,0.00,,,0.00,0,Wunderground v.1.15,2013-02-24 06:45:00,
2013-02-24 00:50:00,21.8,19.1,29.82,SSW,194,0.0,0.0,89,0.00,,,0.00,0,Wunderground v.1.15,2013-02-24 06:50:00,
2013-02-24 00:55:00,21.3,18.6,29.83,SSW,194,1.0,2.0,89,0.00,,,0.00,0,Wunderground v.1.15,2013-02-24 06:55:00,
2013-02-24 01:00:00,20.9,18.2,29.83,SSW,194,0.0,2.0,89,0.00,,,0.00,0,Wunderground v.1.15,2013-02-24 07:00:00,
2013-02-24 01:05:00,20.8,18.1,29.83,SSW,194,0.0,1.0,89,0.00,,,0.00,0,Wunderground v.1.15,2013-02-24 07:05:00,
2013-02-24 01:10:00,21.2,18.5,29.83,SSW,194,0.0,1.0,89,0.00,,,0.00,0,Wunderground v.1.15,2013-02-24 07:10:00,
2013-02-24 01:15:00,21.4,18.9,29.83,SSW,194,3.0,3.0,90,0.00,,,0.00,0,Wunderground v.1.15,2013-02-24 07:15:00,
2013-02-24 01:20:00,21.4,18.9,29.83,SSW,194,2.0,3.0,90,0.00,,,0.00,0,Wunderground v.1.15,2013-02-24 07:20:00,
2013-02-24 01:25:00,22.0,19.5,29.82,SSW,194,2.0,3.0,90,0.00,,,0.00,0,Wunderground v.1.15,2013-02-24 07:25:00,
2013-02-24 01:30:00,22.3,19.8,29.82,SSW,194,0.0,3.0,90,0.00,,,0.00,0,Wunderground v.1.15,2013-02-24 07:30:00,
2013-02-24 01:35:00,22.4,19.9,29.82,SSW,194,0.0,1.0,90,0.00,,,0.00,0,Wunderground v.1.15,2013-02-24 07:35:00,
2013-02-24 01:40:00,22.4,19.9,29.83,SSW,194,0.0,1.0,90,0.00,,,0.00,0,Wunderground v.1.15,2013-02-24 07:40:00,
2013-02-24 01:45:00,22.4,19.9,29.83,SSW,194,0.0,1.0,90,0.00,,,0.00,0,Wunderground v.1.15,2013-02-24 07:45:00,
2013-02-24 01:50:00,22.3,19.8,29.83,SSW,194,0.0,1.0,90,0.00,,,0.00,0,Wunderground v.1.15,2013-02-24 07:50:00,
2013-02-24 01:55:00,22.2,19.7,29.83,SSW,194,0.0,0.0,90,0.00,,,0.00,0,Wunderground v.1.15,2013-02-24 07:55:00,
2013-02-24 02:00:00,22.1,19.6,29.83,SSW,194,0.0,2.0,90,0.00,,,0.00,0,Wunderground v.1.15,2013-02-24 08:00:00,
2013-02-24 02:05:00,22.0,19.5,29.83,SSW,194,3.0,3.0,90,0.00,,,0.00,0,Wunderground v.1.15,2013-02-24 08:05:00,
2013-02-24 02:10:00,21.9,19.4,29.83,SSW,194,4.0,4.0,90,0.00,,,0.00,0,Wunderground v.1.15,2013-02-24 08:10:00,
2013-02-24 02:15:00,22.1,19.6,29.83,SSW,194,2.0,3.0,90,0.00,,,0.00,0,Wunderground v.1.15,2013-02-24 08:15:00,
2013-02-24 02:20:00,22.7,20.2,29.83,SSW,194,2.0,3.0,90,0.00,,,0.00,0,Wunderground v.1.15,2013-02-24 08:20:00,
2013-02-24 02:24:00,23.0,22.5,29.83,SSW,194,1.0,3.0,98,0.00,,,0.00,0,Wunderground v.1.15,2013-02-24 08:24:00,
2013-02-24 02:29:00,23.0,20.5,29.83,SSW,194,1.0,3.0,90,0.00,,,0.00,0,Wunderground v.1.15,2013-02-24 08:29:00,
2013-02-24 02:34:00,22.9,20.4,29.83,SSW,194,0.0,1.0,90,0.00,,,0.00,0,Wunderground v.1.15,2013-02-24 08:34:00,
2013-02-24 02:39:00,22.7,20.2,29.83,SSW,194,0.0,1.0,90,0.00,,,0.00,0,Wunderground v.1.15,2013-02-24 08:39:00,
2013-02-24 02:44:00,22.5,20.0,29.83,SSW,194,2.0,2.0,90,0.00,,,0.00,0,Wunderground v.1.15,2013-02-24 08:44:00,
2013-02-24 02:49:00,22.0,19.5,29.83,SSW,194,1.0,3.0,90,0.00,,,0.00,0,Wunderground v.1.15,2013-02-24 08:49:00,
2013-02-24 02:54:00,22.0,19.5,29.83,SSW,194,2.0,3.0,90,0.00,,,0.00,0,Wunderground v.1.15,2013-02-24 08:54:00,
2013-02-24 02:59:00,21.9,19.4,29.83,SSW,194,1.0,3.0,90,0.00,,,0.00,0,Wunderground v.1.15,2013-02-24 08:59:00,
2013-02-24 03:04:00,21.5,19.0,29.83,SSW,194,1.0,2.0,90,0.00,,,0.00,0,Wunderground v.1.15,2013-02-24 09:04:00,
2013-02-24 03:09:00,21.0,18.5,29.83,SSW,194,1.0,2.0,90,0.00,,,0.00,0,Wunderground v.1.15,2013-02-24 09:09:00,
2013-02-24 03:14:00,20.8,18.3,29.83,SSW,194,2.0,3.0,90,0.00,,,0.00,0,Wunderground v.1.15,2013-02-24 09:14:00,
2013-02-24 03:19:00,20.6,18.1,29.83,SSW,194,3.0,4.0,90,0.00,,,0.00,0,Wunderground v.1.15,2013-02-24 09:19:00,
2013-02-24 03:24:00,20.3,17.8,29.83,SSW,194,1.0,3.0,90,0.00,,,0.00,0,Wunderground v.1.15,2013-02-24 09:24:00,
2013-02-24 03:29:00,19.9,17.4,29.83,SSW,194,1.0,3.0,90,0.00,,,0.00,0,Wunderground v.1.15,2013-02-24 09:29:00,
2013-02-24 03:34:00,19.7,17.2,29.83,SSW,194,2.0,2.0,90,0.00,,,0.00,0,Wunderground v.1.15,2013-02-24 09:34:00,
2013-02-24 03:39:00,19.4,16.9,29.83,SSW,194,0.0,3.0,90,0.00,,,0.00,0,Wunderground v.1.15,2013-02-24 09:39:00,
2013-02-24 03:44:00,19.3,16.8,29.83,SSW,194,0.0,2.0,90,0.00,,,0.00,0,Wunderground v.1.15,2013-02-24 09:44:00,
2013-02-24 03:49:00,19.4,16.9,29.83,SSW,194,1.0,2.0,90,0.00,,,0.00,0,Wunderground v.1.15,2013-02-24 09:49:00,
2013-02-24 03:54:00,18.1,15.7,29.83,SSW,194,0.0,2.0,90,0.00,,,0.00,0,Wunderground v.1.15,2013-02-24 09:54:00,
2013-02-24 03:59:00,18.0,15.6,29.83,SSW,194,3.0,4.0,90,0.00,,,0.00,0,Wunderground v.1.15,2013-02-24 09:59:00,
2013-02-24 04:04:00,16.2,13.5,29.83,SSW,194,4.0,4.0,89,0.00,,,0.00,0,Wunderground v.1.15,2013-02-24 10:04:00,
2013-02-24 04:09:00,16.7,14.3,29.83,SSW,194,2.0,4.0,90,0.00,,,0.00,0,Wunderground v.1.15,2013-02-24 10:09:00,
2013-02-24 04:14:00,17.2,14.8,29.82,SSW,194,2.0,3.0,90,0.00,,,0.00,0,Wunderground v.1.15,2013-02-24 10:14:00,
2013-02-24 04:19:00,17.5,15.1,29.83,SSW,194,2.0,3.0,90,0.00,,,0.00,0,Wunderground v.1.15,2013-02-24 10:19:00,
2013-02-24 04:24:00,16.6,14.2,29.83,SSW,194,1.0,4.0,90,0.00,,,0.00,0,Wunderground v.1.15,2013-02-24 10:24:00,
2013-02-24 04:29:00,16.3,13.9,29.83,SSW,194,1.0,4.0,90,0.00,,,0.00,0,Wunderground v.1.15,2013-02-24 10:29:00,
2013-02-24 04:34:00,16.1,13.7,29.83,SSW,194,0.0,2.0,90,0.00,,,0.00,0,Wunderground v.1.15,2013-02-24 10:34:00,
2013-02-24 04:39:00,15.2,12.8,29.83,SSW,194,3.0,3.0,90,0.00,,,0.00,0,Wunderground v.1.15,2013-02-24 10:39:00,
2013-02-24 04:44:00,14.3,11.9,29.83,SSW,194,0.0,3.0,90,0.00,,,0.00,0,Wunderground v.1.15,2013-02-24 10:44:00,
2013-02-24 04:49:00,15.2,12.8,29.83,SSW,194,0.0,3.0,90,0.00,,,0.00,0,Wunderground v.1.15,2013-02-24 10:49:00,
2013-02-24 04:54:00,15.5,13.1,29.83,SSW,194,0.0,1.0,90,0.00,,,0.00,0,Wunderground v.1.15,2013-02-24 10:54:00,
2013-02-24 04:59:00,15.0,12.6,29.83,SSW,194,0.0,1.0,90,0.00,,,0.00,0,Wunderground v.1.15,2013-02-24 10:59:00,
2013-02-24 05:04:00,14.2,11.8,29.84,SSW,194,0.0,0.0,90,0.00,,,0.00,0,Wunderground v.1.15,2013-02-24 11:04:00,
2013-02-24 05:09:00,14.0,11.6,29.84,SSW,194,2.0,2.0,90,0.00,,,0.00,0,Wunderground v.1.15,2013-02-24 11:09:00,
2013-02-24 05:14:00,14.2,11.8,29.84,SSW,194,1.0,2.0,90,0.00,,,0.00,0,Wunderground v.1.15,2013-02-24 11:14:00,
2013-02-24 05:19:00,14.0,11.6,29.84,SSW,194,0.0,2.0,90,0.00,,,0.00,0,Wunderground v.1.15,2013-02-24 11:19:00,
2013-02-24 05:24:00,13.2,10.8,29.84,SSW,194,0.0,2.0,90,0.00,,,0.00,0,Wunderground v.1.15,2013-02-24 11:24:00,
2013-02-24 05:29:00,13.5,11.1,29.84,SSW,194,0.0,2.0,90,0.00,,,0.00,0,Wunderground v.1.15,2013-02-24 11:29:00,
2013-02-24 05:34:00,13.1,10.7,29.84,SSW,194,0.0,1.0,90,0.00,,,0.00,0,Wunderground v.1.15,2013-02-24 11:34:00,
2013-02-24 05:39:00,11.7,9.1,29.84,SSW,194,1.0,3.0,89,0.00,,,0.00,0,Wunderground v.1.15,2013-02-24 11:39:00,
2013-02-24 05:44:00,11.4,8.8,29.85,SSW,194,1.0,2.0,89,0.00,,,0.00,0,Wunderground v.1.15,2013-02-24 11:44:00,
2013-02-24 05:49:00,12.1,9.7,29.85,SSW,194,1.0,2.0,90,0.00,,,0.00,0,Wunderground v.1.15,2013-02-24 11:49:00,
2013-02-24 05:54:00,12.2,9.8,29.85,SSW,194,1.0,1.0,90,0.00,,,0.00,0,Wunderground v.1.15,2013-02-24 11:54:00,
2013-02-24 05:59:00,12.1,9.7,29.85,SSW,194,0.0,1.0,90,0.00,,,0.00,0,Wunderground v.1.15,2013-02-24 11:59:00,
2013-02-24 06:04:00,11.8,9.4,29.85,SSW,194,2.0,3.0,90,0.00,,,0.00,0,Wunderground v.1.15,2013-02-24 12:04:00,
2013-02-24 06:09:00,10.8,8.2,29.85,SSW,194,2.0,3.0,89,0.00,,,0.00,0,Wunderground v.1.15,2013-02-24 12:09:00,
2013-02-24 06:14:00,10.3,7.7,29.85,SSW,194,0.0,2.0,89,0.00,,,0.00,0,Wunderground v.1.15,2013-02-24 12:14:00,
2013-02-24 06:19:00,10.4,8.0,29.85,SSW,194,0.0,2.0,90,0.00,,,0.00,0,Wunderground v.1.15,2013-02-24 12:19:00,
2013-02-24 06:24:00,10.4,8.0,29.85,SSW,194,0.0,0.0,90,0.00,,,0.00,0,Wunderground v.1.15,2013-02-24 12:24:00,
2013-02-24 06:29:00,10.2,7.9,29.86,SSW,194,1.0,1.0,90,0.00,,,0.00,0,Wunderground v.1.15,2013-02-24 12:29:00,
2013-02-24 06:34:00,10.1,7.8,29.86,SSW,194,0.0,2.0,90,0.00,,,0.00,0,Wunderground v.1.15,2013-02-24 12:34:00,
2013-02-24 06:39:00,10.7,8.3,29.87,SSW,194,0.0,2.0,90,0.00,,,0.00,0,Wunderground v.1.15,2013-02-24 12:39:00,
2013-02-24 06:44:00,11.0,8.6,29.87,SSW,194,2.0,2.0,90,0.00,,,0.00,0,Wunderground v.1.15,2013-02-24 12:44:00,
2013-02-24 06:49:00,11.4,9.0,29.87,SSW,194,0.0,3.0,90,0.00,,,0.00,0,Wunderground v.1.15,2013-02-24 12:49:00,
2013-02-24 06:54:00,11.5,9.1,29.87,SSW,194,0.0,1.0,90,0.00,,,0.00,0,Wunderground v.1.15,2013-02-24 12:54:00,
2013-02-24 06:59:00,11.5,9.1,29.87,SSW,194,0.0,1.0,90,0.00,,,0.00,0,Wunderground v.1.15,2013-02-24 12:59:00,
2013-02-24 07:04:00,11.7,9.3,29.87,SSW,194,0.0,0.0,90,0.00,,,0.00,0,Wunderground v.1.15,2013-02-24 13:04:00,
2013-02-24 07:09:00,11.9,9.5,29.87,SSW,194,0.0,0.0,90,0.00,,,0.00,0,Wunderground v.1.15,2013-02-24 13:09:00,
2013-02-24 07:14:00,11.9,9.5,29.87,SSW,194,0.0,0.0,90,0.00,,,0.00,0,Wunderground v.1.15,2013-02-24 13:14:00,
2013-02-24 07:19:00,11.8,9.4,29.88,SSW,194,0.0,1.0,90,0.00,,,0.00,5,Wunderground v.1.15,2013-02-24 13:19:00,
2013-02-24 07:24:00,11.8,9.2,29.88,SSW,194,0.0,0.0,89,0.00,,,0.00,7,Wunderground v.1.15,2013-02-24 13:24:00,
2013-02-24 07:29:00,12.0,9.4,29.89,SSW,194,0.0,1.0,89,0.00,,,0.00,11,Wunderground v.1.15,2013-02-24 13:29:00,
2013-02-24 07:34:00,12.1,9.5,29.89,SSW,194,0.0,0.0,89,0.00,,,0.00,16,Wunderground v.1.15,2013-02-24 13:34:00,
2013-02-24 07:39:00,12.3,9.9,29.89,SSW,195,0.0,0.0,90,0.00,,,0.00,21,Wunderground v.1.15,2013-02-24 13:39:00,
2013-02-24 07:44:00,12.8,10.2,29.90,SSW,194,0.0,1.0,89,0.00,,,0.00,32,Wunderground v.1.15,2013-02-24 13:44:00,
2013-02-24 07:49:00,13.4,11.0,29.90,SSW,194,0.0,1.0,90,0.00,,,0.00,32,Wunderground v.1.15,2013-02-24 13:49:00,
2013-02-24 07:54:00,13.9,11.5,29.89,SSW,195,0.0,2.0,90,0.00,,,0.00,35,Wunderground v.1.15,2013-02-24 13:54:00,
2013-02-24 07:59:00,14.3,11.9,29.89,SSW,198,4.0,4.0,90,0.00,,,0.00,49,Wunderground v.1.15,2013-02-24 13:59:00,
2013-02-24 08:04:00,14.9,12.5,29.89,SSW,202,1.0,5.0,90,0.00,,,0.00,56,Wunderground v.1.15,2013-02-24 14:04:00,
2013-02-24 08:09:00,15.5,13.1,29.89,SSW,202,3.0,5.0,90,0.00,,,0.00,70,Wunderground v.1.15,2013-02-24 14:09:00,
2013-02-24 08:14:00,16.2,13.8,29.90,SSW,202,2.0,3.0,90,0.00,,,0.00,91,Wunderground v.1.15,2013-02-24 14:14:00,
2013-02-24 08:19:00,16.8,14.4,29.90,SSW,203,4.0,4.0,90,0.00,,,0.00,121,Wunderground v.1.15,2013-02-24 14:19:00,
2013-02-24 08:24:00,17.7,15.3,29.90,SW,214,2.0,5.0,90,0.00,,,0.00,134,Wunderground v.1.15,2013-02-24 14:24:00,
2013-02-24 08:29:00,18.5,16.1,29.90,NW,315,1.0,6.0,90,0.00,,,0.00,123,Wunderground v.1.15,2013-02-24 14:29:00,
2013-02-24 08:34:00,19.3,17.1,29.91,NW,315,3.0,4.0,91,0.00,,,0.00,132,Wunderground v.1.15,2013-02-24 14:34:00,
2013-02-24 08:39:00,19.8,17.6,29.92,NW,321,2.0,5.0,91,0.00,,,0.00,93,Wunderground v.1.15,2013-02-24 14:39:00,
2013-02-24 08:44:00,19.8,17.3,29.92,NW,323,3.0,7.0,90,0.00,,,0.00,111,Wunderground v.1.15,2013-02-24 14:44:00,
2013-02-24 08:49:00,19.8,17.3,29.92,NW,323,4.0,7.0,90,0.00,,,0.00,128,Wunderground v.1.15,2013-02-24 14:49:00,
2013-02-24 08:54:00,20.0,17.5,29.92,NW,323,4.0,4.0,90,0.00,,,0.00,141,Wunderground v.1.15,2013-02-24 14:54:00,
2013-02-24 08:59:00,20.2,17.7,29.92,NNW,335,3.0,6.0,90,0.00,,,0.00,155,Wunderground v.1.15,2013-02-24 14:59:00,
2013-02-24 09:04:00,20.5,18.0,29.92,NNW,347,3.0,6.0,90,0.00,,,0.00,190,Wunderground v.1.15,2013-02-24 15:04:00,
2013-02-24 09:10:00,20.9,18.7,29.92,NNW,348,5.0,5.0,91,0.00,,,0.00,253,Wunderground v.1.15,2013-02-24 15:10:00,
2013-02-24 09:15:00,21.0,18.8,29.93,NNW,344,4.0,8.0,91,0.00,,,0.00,199,Wunderground v.1.15,2013-02-24 15:15:00,
2013-02-24 09:20:00,21.2,19.0,29.93,NNW,345,7.0,7.0,91,0.00,,,0.00,265,Wunderground v.1.15,2013-02-24 15:20:00,
2013-02-24 09:25:00,21.3,18.8,29.93,NNW,347,3.0,7.0,90,0.00,,,0.00,288,Wunderground v.1.15,2013-02-24 15:25:00,
2013-02-24 09:30:00,21.4,18.9,29.93,NNW,344,5.0,6.0,90,0.00,,,0.00,299,Wunderground v.1.15,2013-02-24 15:30:00,
2013-02-24 09:35:00,21.5,19.0,29.94,NNW,342,0.0,7.0,90,0.00,,,0.00,320,Wunderground v.1.15,2013-02-24 15:35:00,
2013-02-24 09:40:00,21.6,19.4,29.94,NNW,342,3.0,4.0,91,0.00,,,0.00,274,Wunderground v.1.15,2013-02-24 15:40:00,
2013-02-24 09:45:00,22.0,19.5,29.94,North,351,4.0,6.0,90,0.00,,,0.00,338,Wunderground v.1.15,2013-02-24 15:45:00,
2013-02-24 09:50:00,22.2,19.7,29.94,North,355,2.0,4.0,90,0.00,,,0.00,306,Wunderground v.1.15,2013-02-24 15:50:00,
2013-02-24 09:55:00,22.3,20.1,29.94,North,355,0.0,4.0,91,0.00,,,0.00,325,Wunderground v.1.15,2013-02-24 15:55:00,
2013-02-24 10:00:00,22.8,20.6,29.94,North,355,2.0,2.0,91,0.00,,,0.00,380,Wunderground v.1.15,2013-02-24 16:00:00,
2013-02-24 10:05:00,23.3,21.1,29.94,North,351,5.0,6.0,91,0.00,,,0.00,374,Wunderground v.1.15,2013-02-24 16:05:00,
2013-02-24 10:10:00,23.5,21.3,29.94,North,355,3.0,4.0,91,0.00,,,0.00,432,Wunderground v.1.15,2013-02-24 16:10:00,
2013-02-24 10:15:00,23.6,21.4,29.94,North,350,6.0,6.0,91,0.00,,,0.00,503,Wunderground v.1.15,2013-02-24 16:15:00,
2013-02-24 10:20:00,23.8,21.6,29.94,NNW,348,8.0,8.0,91,0.00,,,0.00,390,Wunderground v.1.15,2013-02-24 16:20:00,
2013-02-24 10:25:00,24.0,21.5,29.94,North,349,4.0,9.0,90,0.00,,,0.00,503,Wunderground v.1.15,2013-02-24 16:25:00,
2013-02-24 10:30:00,23.7,21.2,29.95,NNW,347,3.0,5.0,90,0.00,,,0.00,406,Wunderground v.1.15,2013-02-24 16:30:00,
2013-02-24 10:35:00,23.8,21.0,29.95,NNW,345,6.0,8.0,89,0.00,,,0.00,494,Wunderground v.1.15,2013-02-24 16:35:00,
2013-02-24 10:40:00,23.9,21.1,29.95,North,9,4.0,8.0,89,0.00,,,0.00,397,Wunderground v.1.15,2013-02-24 16:40:00,
2013-02-24 10:45:00,24.4,21.4,29.95,NNW,348,6.0,8.0,88,0.00,,,0.00,482,Wunderground v.1.15,2013-02-24 16:45:00,
2013-02-24 10:50:00,24.8,21.5,29.95,North,5,7.0,8.0,87,0.00,,,0.00,485,Wunderground v.1.15,2013-02-24 16:50:00,
2013-02-24 10:55:00,25.2,21.6,29.96,NNW,343,6.0,8.0,86,0.00,,,0.00,438,Wunderground v.1.15,2013-02-24 16:55:00,
2013-02-24 11:00:00,25.0,21.1,29.96,North,355,5.0,6.0,85,0.00,,,0.00,480,Wunderground v.1.15,2013-02-24 17:00:00,
2013-02-24 11:05:00,24.9,20.8,29.96,North,9,6.0,10.0,84,0.00,,,0.00,617,Wunderground v.1.15,2013-02-24 17:05:00,
2013-02-24 11:10:00,25.6,21.4,29.96,North,5,5.0,6.0,84,0.00,,,0.00,680,Wunderground v.1.15,2013-02-24 17:10:00,
2013-02-24 11:15:00,26.0,21.8,29.96,North,351,4.0,9.0,84,0.00,,,0.00,745,Wunderground v.1.15,2013-02-24 17:15:00,
2013-02-24 11:20:00,26.9,22.4,29.96,North,5,3.0,6.0,83,0.00,,,0.00,751,Wunderground v.1.15,2013-02-24 17:20:00,
2013-02-24 11:25:00,26.6,21.8,29.96,North,360,4.0,9.0,82,0.00,,,0.00,684,Wunderground v.1.15,2013-02-24 17:25:00,
2013-02-24 11:30:00,27.0,22.2,29.96,North,355,6.0,8.0,82,0.00,,,0.00,508,Wunderground v.1.15,2013-02-24 17:30:00,
2013-02-24 11:35:00,26.5,21.5,29.96,NW,323,6.0,8.0,81,0.00,,,0.00,531,Wunderground v.1.15,2013-02-24 17:35:00,
2013-02-24 11:40:00,26.9,22.1,29.95,NNW,348,8.0,8.0,82,0.00,,,0.00,693,Wunderground v.1.15,2013-02-24 17:40:00,
2013-02-24 11:45:00,26.9,22.1,29.96,NNW,334,4.0,9.0,82,0.00,,,0.00,652,Wunderground v.1.15,2013-02-24 17:45:00,
2013-02-24 11:50:00,27.4,22.3,29.96,NNW,344,8.0,8.0,81,0.00,,,0.00,728,Wunderground v.1.15,2013-02-24 17:50:00,
2013-02-24 11:55:00,27.7,22.3,29.96,North,355,6.0,10.0,80,0.00,,,0.00,649,Wunderground v.1.15,2013-02-24 17:55:00,
2013-02-24 12:00:00,27.4,22.0,29.96,NNW,330,6.0,6.0,80,0.00,,,0.00,687,Wunderground v.1.15,2013-02-24 18:00:00,
2013-02-24 12:06:00,27.8,22.7,29.96,North,350,4.0,9.0,81,0.00,,,0.00,643,Wunderground v.1.15,2013-02-24 18:06:00,
2013-02-24 12:11:00,27.9,22.5,29.96,North,355,7.0,10.0,80,0.00,,,0.00,738,Wunderground v.1.15,2013-02-24 18:11:00,
2013-02-24 12:16:00,27.9,22.5,29.96,North,351,6.0,11.0,80,0.00,,,0.00,631,Wunderground v.1.15,2013-02-24 18:16:00,
2013-02-24 12:21:00,28.0,22.6,29.96,North,355,6.0,6.0,80,0.00,,,0.00,647,Wunderground v.1.15,2013-02-24 18:21:00,
2013-02-24 12:26:00,27.5,22.1,29.96,NW,324,4.0,7.0,80,0.00,,,0.00,759,Wunderground v.1.15,2013-02-24 18:26:00,
2013-02-24 12:31:00,27.3,21.9,29.96,NNW,331,5.0,6.0,80,0.00,,,0.00,540,Wunderground v.1.15,2013-02-24 18:31:00,
2013-02-24 12:36:00,26.7,21.7,29.96,NW,309,6.0,9.0,81,0.00,,,0.00,496,Wunderground v.1.15,2013-02-24 18:36:00,
2013-02-24 12:41:00,27.1,22.6,29.95,NNW,336,5.0,6.0,83,0.00,,,0.00,559,Wunderground v.1.15,2013-02-24 18:41:00,
2013-02-24 12:46:00,27.6,23.1,29.95,NNW,344,5.0,9.0,83,0.00,,,0.00,578,Wunderground v.1.15,2013-02-24 18:46:00,
2013-02-24 12:51:00,28.0,23.2,29.95,North,355,8.0,8.0,82,0.00,,,0.00,619,Wunderground v.1.15,2013-02-24 18:51:00,
2013-02-24 12:56:00,27.6,22.8,29.95,NNW,331,6.0,10.0,82,0.00,,,0.00,594,Wunderground v.1.15,2013-02-24 18:56:00,
2013-02-24 13:01:00,28.3,23.5,29.95,NNW,332,4.0,8.0,82,0.00,,,0.00,693,Wunderground v.1.15,2013-02-24 19:01:00,
2013-02-24 13:06:00,28.9,24.4,29.95,NNE,12,4.0,9.0,83,0.00,,,0.00,657,Wunderground v.1.15,2013-02-24 19:06:00,
2013-02-24 13:11:00,29.0,23.9,29.95,NNE,13,5.0,8.0,81,0.00,,,0.00,585,Wunderground v.1.15,2013-02-24 19:11:00,
2013-02-24 13:16:00,28.3,23.2,29.95,North,355,7.0,10.0,81,0.00,,,0.00,443,Wunderground v.1.15,2013-02-24 19:16:00,
2013-02-24 13:21:00,28.3,23.8,29.95,North,5,5.0,7.0,83,0.00,,,0.00,459,Wunderground v.1.15,2013-02-24 19:21:00,
2013-02-24 13:26:00,28.3,23.8,29.95,North,355,5.0,7.0,83,0.00,,,0.00,443,Wunderground v.1.15,2013-02-24 19:26:00,
2013-02-24 13:31:00,28.2,24.0,29.95,NNW,346,7.0,9.0,84,0.00,,,0.00,459,Wunderground v.1.15,2013-02-24 19:31:00,
2013-02-24 13:36:00,28.0,23.8,29.95,North,5,4.0,10.0,84,0.00,,,0.00,438,Wunderground v.1.15,2013-02-24 19:36:00,
2013-02-24 13:41:00,28.4,24.2,29.94,NNE,24,8.0,9.0,84,0.00,,,0.00,420,Wunderground v.1.15,2013-02-24 19:41:00,
2013-02-24 13:46:00,28.3,24.1,29.94,North,360,6.0,11.0,84,0.00,,,0.00,417,Wunderground v.1.15,2013-02-24 19:46:00,
2013-02-24 13:51:00,28.5,24.3,29.94,NNW,346,6.0,7.0,84,0.00,,,0.00,429,Wunderground v.1.15,2013-02-24 19:51:00,
2013-02-24 13:56:00,29.0,24.8,29.94,NNW,335,6.0,9.0,84,0.00,,,0.00,432,Wunderground v.1.15,2013-02-24 19:56:00,
2013-02-24 14:01:00,28.7,24.2,29.94,North,355,10.0,14.0,83,0.00,,,0.00,431,Wunderground v.1.15,2013-02-24 20:01:00,
2013-02-24 14:06:00,28.9,24.4,29.94,North,5,6.0,14.0,83,0.00,,,0.00,427,Wunderground v.1.15,2013-02-24 20:06:00,
2013-02-24 14:11:00,29.0,24.5,29.94,NNE,18,6.0,10.0,83,0.00,,,0.00,422,Wunderground v.1.15,2013-02-24 20:11:00,
2013-02-24 14:16:00,28.8,24.0,29.94,NNW,337,7.0,12.0,82,0.00,,,0.00,436,Wunderground v.1.15,2013-02-24 20:16:00,
2013-02-24 14:21:00,28.8,24.0,29.93,NNW,335,8.0,10.0,82,0.00,,,0.00,476,Wunderground v.1.15,2013-02-24 20:21:00,
2013-02-24 14:26:00,29.4,24.6,29.93,NNW,344,9.0,16.0,82,0.00,,,0.00,446,Wunderground v.1.15,2013-02-24 20:26:00,
2013-02-24 14:31:00,29.0,24.2,29.93,North,355,4.0,9.0,82,0.00,,,0.00,466,Wunderground v.1.15,2013-02-24 20:31:00,
2013-02-24 14:36:00,29.2,24.4,29.94,NNE,17,3.0,12.0,82,0.00,,,0.00,417,Wunderground v.1.15,2013-02-24 20:36:00,
2013-02-24 14:41:00,29.5,24.7,29.94,NNW,343,9.0,10.0,82,0.00,,,0.00,392,Wunderground v.1.15,2013-02-24 20:41:00,
2013-02-24 14:46:00,29.4,24.3,29.94,NNW,332,7.0,11.0,81,0.00,,,0.00,394,Wunderground v.1.15,2013-02-24 20:46:00,
2013-02-24 14:51:00,29.4,24.3,29.94,North,5,10.0,13.0,81,0.00,,,0.00,378,Wunderground v.1.15,2013-02-24 20:51:00,
2013-02-24 14:56:00,29.3,24.2,29.94,NNW,342,5.0,13.0,81,0.00,,,0.00,366,Wunderground v.1.15,2013-02-24 20:56:00,
2013-02-24 15:01:00,29.2,23.8,29.94,NW,323,10.0,10.0,80,0.00,,,0.00,355,Wunderground v.1.15,2013-02-24 21:01:00,
2013-02-24 15:06:00,29.2,24.1,29.94,NNW,336,7.0,13.0,81,0.00,,,0.00,357,Wunderground v.1.15,2013-02-24 21:06:00,
2013-02-24 15:11:00,29.4,24.3,29.94,NNW,336,7.0,8.0,81,0.00,,,0.00,348,Wunderground v.1.15,2013-02-24 21:11:00,
2013-02-24 15:16:00,29.7,24.6,29.94,North,351,4.0,11.0,81,0.00,,,0.00,308,Wunderground v.1.15,2013-02-24 21:16:00,
2013-02-24 15:21:00,29.7,24.6,29.94,NNW,342,9.0,10.0,81,0.00,,,0.00,292,Wunderground v.1.15,2013-02-24 21:21:00,
2013-02-24 15:26:00,29.7,24.6,29.94,NNW,329,5.0,10.0,81,0.00,,,0.00,290,Wunderground v.1.15,2013-02-24 21:26:00,
2013-02-24 15:31:00,29.5,24.4,29.94,NW,325,4.0,8.0,81,0.00,,,0.00,292,Wunderground v.1.15,2013-02-24 21:31:00,
2013-02-24 15:36:00,29.5,24.4,29.95,NNW,342,6.0,9.0,81,0.00,,,0.00,288,Wunderground v.1.15,2013-02-24 21:36:00,
2013-02-24 15:41:00,29.7,24.6,29.95,North,5,6.0,8.0,81,0.00,,,0.00,281,Wunderground v.1.15,2013-02-24 21:41:00,
2013-02-24 15:46:00,29.9,24.8,29.95,NW,321,5.0,9.0,81,0.00,,,0.00,269,Wunderground v.1.15,2013-02-24 21:46:00,
2013-02-24 15:51:00,29.9,24.8,29.95,North,5,9.0,9.0,81,0.00,,,0.00,258,Wunderground v.1.15,2013-02-24 21:51:00,
2013-02-24 15:56:00,30.0,24.9,29.95,NNE,13,8.0,11.0,81,0.00,,,0.00,248,Wunderground v.1.15,2013-02-24 21:56:00,
2013-02-24 16:01:00,29.9,24.5,29.95,NNE,17,8.0,10.0,80,0.00,,,0.00,236,Wunderground v.1.15,2013-02-24 22:01:00,
2013-02-24 16:06:00,29.9,24.8,29.95,NNE,24,6.0,10.0,81,0.00,,,0.00,223,Wunderground v.1.15,2013-02-24 22:06:00,
2013-02-24 16:11:00,30.0,24.9,29.95,NNE,21,5.0,6.0,81,0.00,,,0.00,214,Wunderground v.1.15,2013-02-24 22:11:00,
2013-02-24 16:16:00,30.2,25.1,29.95,North,349,7.0,10.0,81,0.00,,,0.00,211,Wunderground v.1.15,2013-02-24 22:16:00,
2013-02-24 16:21:00,30.3,25.2,29.95,NNW,344,6.0,7.0,81,0.00,,,0.00,207,Wunderground v.1.15,2013-02-24 22:21:00,
2013-02-24 16:26:00,30.3,25.2,29.95,North,350,3.0,10.0,81,0.00,,,0.00,192,Wunderground v.1.15,2013-02-24 22:26:00,
2013-02-24 16:31:00,30.3,25.2,29.95,NNE,22,4.0,9.0,81,0.00,,,0.00,178,Wunderground v.1.15,2013-02-24 22:31:00,
2013-02-24 16:36:00,30.3,25.2,29.96,North,11,3.0,9.0,81,0.00,,,0.00,165,Wunderground v.1.15,2013-02-24 22:36:00,
2013-02-24 16:41:00,30.5,25.4,29.96,NNW,346,4.0,5.0,81,0.00,,,0.00,151,Wunderground v.1.15,2013-02-24 22:41:00,
2013-02-24 16:46:00,30.6,25.5,29.96,North,360,5.0,7.0,81,0.00,,,0.00,137,Wunderground v.1.15,2013-02-24 22:46:00,
2013-02-24 16:51:00,30.6,25.5,29.96,North,355,5.0,8.0,81,0.00,,,0.00,127,Wunderground v.1.15,2013-02-24 22:51:00,
2013-02-24 16:56:00,30.6,25.5,29.96,NNW,343,4.0,8.0,81,0.00,,,0.00,118,Wunderground v.1.15,2013-02-24 22:56:00,
2013-02-24 17:01:00,30.5,25.4,29.96,NNW,343,4.0,5.0,81,0.00,,,0.00,116,Wunderground v.1.15,2013-02-24 23:01:00,
2013-02-24 17:06:00,30.4,25.6,29.96,NNW,348,5.0,7.0,82,0.00,,,0.00,111,Wunderground v.1.15,2013-02-24 23:06:00,
2013-02-24 17:11:00,30.5,25.7,29.96,North,5,6.0,8.0,82,0.00,,,0.00,100,Wunderground v.1.15,2013-02-24 23:11:00,
2013-02-24 17:16:00,30.5,25.7,29.96,NNW,344,7.0,9.0,82,0.00,,,0.00,86,Wunderground v.1.15,2013-02-24 23:16:00,
2013-02-24 17:21:00,30.4,25.6,29.96,NNW,342,6.0,8.0,82,0.00,,,0.00,74,Wunderground v.1.15,2013-02-24 23:21:00,
2013-02-24 17:26:00,30.2,25.4,29.96,NNW,348,7.0,9.0,82,0.00,,,0.00,65,Wunderground v.1.15,2013-02-24 23:26:00,
2013-02-24 17:31:00,30.1,25.3,29.96,NNW,347,4.0,6.0,82,0.00,,,0.00,58,Wunderground v.1.15,2013-02-24 23:31:00,
2013-02-24 17:36:00,30.0,25.2,29.97,NNW,346,7.0,8.0,82,0.00,,,0.00,51,Wunderground v.1.15,2013-02-24 23:36:00,
2013-02-24 17:41:00,30.0,25.2,29.97,NNE,13,5.0,8.0,82,0.00,,,0.00,40,Wunderground v.1.15,2013-02-24 23:41:00,
2013-02-24 17:46:00,29.9,25.1,29.97,NNW,342,4.0,8.0,82,0.00,,,0.00,33,Wunderground v.1.15,2013-02-24 23:46:00,
2013-02-24 17:51:00,29.9,25.4,29.97,North,355,4.0,6.0,83,0.00,,,0.00,25,Wunderground v.1.15,2013-02-24 23:51:00,
2013-02-24 17:56:00,29.9,25.4,29.97,NNE,13,5.0,6.0,83,0.00,,,0.00,19,Wunderground v.1.15,2013-02-24 23:56:00,
2013-02-24 18:01:00,29.8,25.3,29.98,NNW,347,2.0,4.0,83,0.00,,,0.00,14,Wunderground v.1.15,2013-02-25 00:01:00,
2013-02-24 18:06:00,29.8,25.3,29.98,NNW,345,4.0,5.0,83,0.00,,,0.00,9,Wunderground v.1.15,2013-02-25 00:06:00,
2013-02-24 18:11:00,29.7,25.2,29.98,NNW,348,7.0,7.0,83,0.00,,,0.00,5,Wunderground v.1.15,2013-02-25 00:11:00,
2013-02-24 18:16:00,29.6,25.1,29.98,NNW,344,2.0,7.0,83,0.00,,,0.00,0,Wunderground v.1.15,2013-02-25 00:16:00,
2013-02-24 18:21:00,29.6,25.4,29.98,NNW,344,4.0,7.0,84,0.00,,,0.00,0,Wunderground v.1.15,2013-02-25 00:21:00,
2013-02-24 18:26:00,29.5,25.3,29.99,NNW,338,5.0,7.0,84,0.00,,,0.00,0,Wunderground v.1.15,2013-02-25 00:26:00,
2013-02-24 18:31:00,29.5,25.3,29.99,North,350,8.0,10.0,84,0.00,,,0.00,0,Wunderground v.1.15,2013-02-25 00:31:00,
2013-02-24 18:36:00,29.4,25.2,29.99,NNW,347,4.0,10.0,84,0.00,,,0.00,0,Wunderground v.1.15,2013-02-25 00:36:00,
2013-02-24 18:41:00,29.4,25.2,30.00,NNW,342,5.0,9.0,84,0.00,,,0.00,0,Wunderground v.1.15,2013-02-25 00:41:00,
2013-02-24 18:47:00,29.4,25.2,30.00,NNW,340,4.0,9.0,84,0.00,,,0.00,0,Wunderground v.1.15,2013-02-25 00:47:00,
2013-02-24 18:51:00,29.4,25.2,30.00,NNW,336,5.0,5.0,84,0.00,,,0.00,0,Wunderground v.1.15,2013-02-25 00:51:00,
2013-02-24 18:56:00,29.4,25.4,30.01,NNW,332,3.0,6.0,85,0.00,,,0.00,0,Wunderground v.1.15,2013-02-25 00:56:00,
2013-02-24 19:01:00,29.4,25.2,30.01,NNW,346,3.0,5.0,84,0.00,,,0.00,0,Wunderground v.1.15,2013-02-25 01:01:00,
2013-02-24 19:06:00,29.4,25.4,30.01,North,360,5.0,5.0,85,0.00,,,0.00,0,Wunderground v.1.15,2013-02-25 01:06:00,
2013-02-24 19:11:00,29.4,25.4,30.02,NNW,338,2.0,5.0,85,0.00,,,0.00,0,Wunderground v.1.15,2013-02-25 01:11:00,
2013-02-24 19:16:00,29.3,25.4,30.02,NNW,345,1.0,5.0,85,0.00,,,0.00,0,Wunderground v.1.15,2013-02-25 01:16:00,
2013-02-24 19:21:00,29.3,25.4,30.02,NNW,345,0.0,1.0,85,0.00,,,0.00,0,Wunderground v.1.15,2013-02-25 01:21:00,
2013-02-24 19:26:00,29.3,25.4,30.03,North,360,2.0,4.0,85,0.00,,,0.00,0,Wunderground v.1.15,2013-02-25 01:26:00,
2013-02-24 19:31:00,29.3,25.4,30.03,North,360,3.0,5.0,85,0.00,,,0.00,0,Wunderground v.1.15,2013-02-25 01:31:00,
2013-02-24 19:36:00,29.3,25.4,30.03,North,11,3.0,5.0,85,0.00,,,0.00,0,Wunderground v.1.15,2013-02-25 01:36:00,
2013-02-24 19:42:00,29.2,25.3,30.03,North,360,1.0,3.0,85,0.00,,,0.00,0,Wunderground v.1.15,2013-02-25 01:42:00,
2013-02-24 19:47:00,29.2,25.3,30.03,North,351,1.0,5.0,85,0.00,,,0.00,0,Wunderground v.1.15,2013-02-25 01:47:00,
2013-02-24 19:52:00,29.1,25.2,30.03,NNW,346,3.0,3.0,85,0.00,,,0.00,0,Wunderground v.1.15,2013-02-25 01:52:00,
2013-02-24 19:57:00,29.0,25.1,30.03,North,350,3.0,6.0,85,0.00,,,0.00,0,Wunderground v.1.15,2013-02-25 01:57:00,
2013-02-24 20:02:00,28.9,25.0,30.03,North,350,1.0,3.0,85,0.00,,,0.00,0,Wunderground v.1.15,2013-02-25 02:02:00,
2013-02-24 20:07:00,28.9,25.2,30.03,North,355,2.0,5.0,86,0.00,,,0.00,0,Wunderground v.1.15,2013-02-25 02:07:00,
2013-02-24 20:12:00,28.8,25.1,30.04,North,355,2.0,5.0,86,0.00,,,0.00,0,Wunderground v.1.15,2013-02-25 02:12:00,
2013-02-24 20:17:00,28.8,25.1,30.04,North,355,3.0,5.0,86,0.00,,,0.00,0,Wunderground v.1.15,2013-02-25 02:17:00,
2013-02-24 20:22:00,28.7,25.0,30.04,North,355,3.0,4.0,86,0.00,,,0.00,0,Wunderground v.1.15,2013-02-25 02:22:00,
2013-02-24 20:27:00,28.7,25.0,30.04,NNW,346,4.0,7.0,86,0.00,,,0.00,0,Wunderground v.1.15,2013-02-25 02:27:00,
2013-02-24 20:32:00,28.6,24.9,30.04,NNW,346,7.0,8.0,86,0.00,,,0.00,0,Wunderground v.1.15,2013-02-25 02:32:00,
2013-02-24 20:37:00,28.5,24.8,30.05,North,355,5.0,8.0,86,0.00,,,0.00,0,Wunderground v.1.15,2013-02-25 02:37:00,
2013-02-24 20:42:00,28.5,24.8,30.05,NNW,348,3.0,5.0,86,0.00,,,0.00,0,Wunderground v.1.15,2013-02-25 02:42:00,
2013-02-24 20:47:00,28.5,24.8,30.05,North,349,5.0,6.0,86,0.00,,,0.00,0,Wunderground v.1.15,2013-02-25 02:47:00,
2013-02-24 20:52:00,28.4,24.7,30.05,North,350,3.0,5.0,86,0.00,,,0.00,0,Wunderground v.1.15,2013-02-25 02:52:00,
2013-02-24 20:57:00,28.4,24.7,30.05,North,355,4.0,7.0,86,0.00,,,0.00,0,Wunderground v.1.15,2013-02-25 02:57:00,
2013-02-24 21:02:00,28.3,24.6,30.05,North,355,3.0,6.0,86,0.00,,,0.00,0,Wunderground v.1.15,2013-02-25 03:02:00,
2013-02-24 21:07:00,28.3,24.6,30.05,North,349,2.0,6.0,86,0.00,,,0.00,0,Wunderground v.1.15,2013-02-25 03:07:00,
2013-02-24 21:12:00,28.2,24.6,30.05,NNW,336,5.0,6.0,86,0.00,,,0.00,0,Wunderground v.1.15,2013-02-25 03:12:00,
2013-02-24 21:17:00,28.2,24.6,30.05,NNW,339,4.0,7.0,86,0.00,,,0.00,0,Wunderground v.1.15,2013-02-25 03:17:00,
2013-02-24 21:22:00,28.1,24.5,30.05,NNW,338,5.0,6.0,86,0.00,,,0.00,0,Wunderground v.1.15,2013-02-25 03:22:00,
2013-02-24 21:27:00,28.1,24.5,30.05,NNW,330,4.0,6.0,86,0.00,,,0.00,0,Wunderground v.1.15,2013-02-25 03:27:00,
2013-02-24 21:32:00,28.0,24.4,30.05,NNW,328,2.0,4.0,86,0.00,,,0.00,0,Wunderground v.1.15,2013-02-25 03:32:00,
2013-02-24 21:37:00,28.0,24.4,30.06,NNW,329,3.0,4.0,86,0.00,,,0.00,0,Wunderground v.1.15,2013-02-25 03:37:00,
2013-02-24 21:42:00,27.9,24.3,30.06,NNW,328,0.0,2.0,86,0.00,,,0.00,0,Wunderground v.1.15,2013-02-25 03:42:00,
2013-02-24 21:47:00,27.9,24.5,30.06,NNW,327,1.0,2.0,87,0.00,,,0.00,0,Wunderground v.1.15,2013-02-25 03:47:00,
2013-02-24 21:52:00,27.8,24.4,30.06,NNW,327,1.0,2.0,87,0.00,,,0.00,0,Wunderground v.1.15,2013-02-25 03:52:00,
2013-02-24 21:57:00,27.8,24.4,30.06,NNW,327,2.0,3.0,87,0.00,,,0.00,0,Wunderground v.1.15,2013-02-25 03:57:00,
2013-02-24 22:02:00,27.8,24.4,30.06,NNW,327,3.0,4.0,87,0.00,,,0.00,0,Wunderground v.1.15,2013-02-25 04:02:00,
2013-02-24 22:07:00,27.8,24.4,30.06,NNW,327,0.0,4.0,87,0.00,,,0.00,0,Wunderground v.1.15,2013-02-25 04:07:00,
2013-02-24 22:12:00,27.8,24.4,30.06,NNW,327,0.0,1.0,87,0.00,,,0.00,0,Wunderground v.1.15,2013-02-25 04:12:00,
2013-02-24 22:17:00,27.8,24.4,30.07,NNW,327,2.0,2.0,87,0.00,,,0.00,0,Wunderground v.1.15,2013-02-25 04:17:00,
2013-02-24 22:22:00,27.9,24.5,30.07,NW,317,3.0,4.0,87,0.00,,,0.00,0,Wunderground v.1.15,2013-02-25 04:22:00,
2013-02-24 22:27:00,27.9,24.5,30.07,NW,317,1.0,4.0,87,0.00,,,0.00,0,Wunderground v.1.15,2013-02-25 04:27:00,
2013-02-24 22:32:00,27.9,24.5,30.07,NW,317,2.0,2.0,87,0.00,,,0.00,0,Wunderground v.1.15,2013-02-25 04:32:00,
2013-02-24 22:37:00,27.9,24.5,30.07,NW,317,0.0,3.0,87,0.00,,,0.00,0,Wunderground v.1.15,2013-02-25 04:37:00,
2013-02-24 22:42:00,27.9,24.5,30.07,NW,317,0.0,2.0,87,0.00,,,0.00,0,Wunderground v.1.15,2013-02-25 04:42:00,
2013-02-24 22:47:00,27.9,24.8,30.07,NW,317,0.0,2.0,88,0.00,,,0.00,0,Wunderground v.1.15,2013-02-25 04:47:00,
2013-02-24 22:52:00,27.9,24.8,30.07,NW,317,0.0,0.0,88,0.00,,,0.00,0,Wunderground v.1.15,2013-02-25 04:52:00,
2013-02-24 22:57:00,27.9,24.8,30.07,NW,317,0.0,1.0,88,0.00,,,0.00,0,Wunderground v.1.15,2013-02-25 04:57:00,
2013-02-24 23:00:00,27.9,24.8,30.07,NW,317,1.0,1.0,88,0.00,,,0.00,0,Wunderground v.1.15,2013-02-25 05:00:00,
2013-02-24 23:05:00,27.9,24.8,30.07,WNW,294,3.0,4.0,88,0.00,,,0.00,0,Wunderground v.1.15,2013-02-25 05:05:00,
2013-02-24 23:10:00,27.8,24.7,30.07,WNW,290,2.0,2.0,88,0.00,,,0.00,0,Wunderground v.1.15,2013-02-25 05:10:00,
2013-02-24 23:15:00,27.7,24.6,30.07,WNW,290,0.0,2.0,88,0.00,,,0.00,0,Wunderground v.1.15,2013-02-25 05:15:00,
2013-02-24 23:20:00,27.7,24.6,30.07,WNW,290,0.0,0.0,88,0.00,,,0.00,0,Wunderground v.1.15,2013-02-25 05:20:00,
2013-02-24 23:25:00,27.7,24.6,30.06,WNW,290,0.0,1.0,88,0.00,,,0.00,0,Wunderground v.1.15,2013-02-25 05:25:00,
2013-02-24 23:30:00,27.7,24.6,30.06,WNW,290,0.0,1.0,88,0.00,,,0.00,0,Wunderground v.1.15,2013-02-25 05:30:00,
2013-02-24 23:35:00,27.6,24.5,30.06,WNW,290,0.0,2.0,88,0.00,,,0.00,0,Wunderground v.1.15,2013-02-25 05:35:00,
2013-02-24 23:40:00,27.6,24.5,30.06,WNW,290,0.0,0.0,88,0.00,,,0.00,0,Wunderground v.1.15,2013-02-25 05:40:00,
2013-02-24 23:45:00,27.5,24.4,30.06,WNW,290,0.0,1.0,88,0.00,,,0.00,0,Wunderground v.1.15,2013-02-25 05:45:00,
2013-02-24 23:50:00,27.5,24.4,30.06,WNW,290,1.0,1.0,88,0.00,,,0.00,0,Wunderground v.1.15,2013-02-25 05:50:00,
2013-02-24 23:55:00,27.5,24.4,30.06,WNW,290,0.0,4.0,88,0.00,,,0.00,0,Wunderground v.1.15,2013-02-25 05:55:00,